Temp
9 8 7 7 7 6 7 8 8 9 8 9 8 6 5 4 5 6 7 7 8 9 8 8 8 8 8 8 8 8 7 8
9 9 8 7 6 5 5 5 7 8 8 8 7 6 4 4 4 4 5 5 7 7 6 6 7 6 5 5 6 7 7 6
8 7 7 6 6 4 4 4 6 6 7 6 6 3 3 3 3 3 3 2 4 4 5 5 6 5 5 5 4 5 4 2
8 7 6 5 5 4 3 3 5 5 6 6 5 4 3 3 3 2 1 1 2 3 3 4 4 5 4 3 4 3 3 -0
8 6 6 5 4 4 3 3 4 5 5 5 5 4 3 2 1 1 0 0 0 1 2 3 3 3 3 3 2 1 -1 -2
7 6 5 5 4 3 2 2 3 4 4 4 3 3 1 1 1 1 1 -0 -1 0 0 1 -0 -1 -0 -1 -1 -3 -4 -4
7 5 5 4 3 3 2 1 2 2 1 -0 1 0 0 0 1 1 0 -0 -1 -1 -0 -1 -2 -3 -3 -2 -4 -5 -4 -5
5 5 4 3 3 2 1 0 1 1 0 -1 -1 -1 -1 -1 -0 -0 -0 -0 -2 -2 -1 -1 -2 -2 -2 -3 -5 -5 -5 -5
5 4 3 2 1 1 0 -0 0 0 -1 -2 -1 -1 -2 -2 -2 -1 -2 -2 -3 -2 -2 -2 -2 -2 -2 -3 -6 -6 -6 -6
5 4 3 2 1 -0 -1 -1 0 -0 -1 -2 -2 -2 -2 -2 -2 -2 -2 -1 -2 -2 -2 -2 -2 -2 -3 -5 -6 -7 -7 -7
3 3 2 1 -0 -1 -1 -0 -0 -1 -1 -1 -2 -2 -3 -3 -3 -2 -2 -2 -2 -2 -3 -3 -3 -4 -4 -5 -6 -7 -7 -7
3 3 1 0 -0 -1 -1 -1 -0 -0 -1 -2 -2 -2 -3 -4 -3 -3 -2 -2 -3 -3 -4 -4 -4 -4 -4 -5 -7 -7 -7 -6
3 2 1 1 -0 -1 -1 -1 -0 -0 -1 -1 -2 -3 -3 -4 -4 -4 -3 -4 -4 -5 -5 -5 -5 -5 -5 -5 -7 -6 -6 -6
1 1 1 1 -0 -1 -1 -2 -1 -1 -2 -2 -4 -4 -4 -4 -5 -6 -5 -6 -6 -6 -6 -5 -5 -5 -6 -6 -7 -7 -7 -6
1 1 1 -0 -1 -1 -2 -2 -3 -3 -3 -4 -4 -5 -5 -5 -5 -6 -6 -6 -6 -6 -6 -6 -6 -6 -7 -7 -7 -7 -7 -7
-0 -0 -1 -2 -1 -2 -3 -3 -4 -4 -4 -5 -5 -6 -5 -6 -6 -6 -7 -7 -7 -7 -7 -7 -6 -5 -6 -6 -6 -6 -6 -7
-0 -1 -2 -2 -2 -2 -4 -4 -4 -5 -5 -5 -5 -6 -6 -6 -6 -6 -7 -7 -7 -7 -5 -6 -6 -5 -6 -5 -6 -6 -6 -6
-1 -1 -2 -2 -2 -3 -4 -4 -5 -5 -5 -5 -6 -6 -6 -6 -6 -6 -7 -7 -7 -6 -6 -5 -5 -5 -6 -6 -6 -6 -6 -6
-1 -1 -2 -3 -3 -4 -4 -4 -5 -5 -5 -5 -6 -6 -6 -6 -6 -6 -6 -7 -7 -7 -6 -5 -5 -5 -6 -6 -6 -6 -6 -6
Height
1520 1523 1524 1525 1526 1525 1524 1523 1523 1522 1522 1522 1522 1523 1522 1519 1516 1515 1514 1512 1510 1507 1506 1503 1500 1496 1492 1489 1485 1481 1475 1470
1515 1518 1520 1522 1525 1525 1525 1522 1520 1519 1519 1520 1521 1522 1522 1519 1517 1515 1513 1511 1508 1506 1505 1501 1498 1494 1490 1487 1483 1478 1473 1467
1514 1517 1520 1520 1522 1524 1524 1522 1520 1518 1516 1519 1519 1520 1521 1519 1517 1515 1512 1509 1507 1505 1503 1500 1497 1493 1490 1486 1482 1478 1474 1471
1508 1511 1514 1517 1520 1522 1522 1520 1519 1519 1519 1518 1519 1519 1520 1519 1518 1514 1512 1508 1505 1504 1502 1499 1496 1492 1489 1486 1482 1479 1476 1474
1510 1513 1516 1517 1518 1519 1520 1519 1520 1520 1519 1517 1517 1517 1517 1516 1516 1514 1512 1509 1505 1503 1500 1497 1494 1491 1489 1486 1482 1480 1479 1474
1506 1510 1512 1514 1516 1518 1521 1518 1517 1518 1520 1518 1516 1517 1518 1516 1514 1513 1511 1508 1506 1501 1499 1495 1492 1490 1487 1485 1482 1480 1477 1475
1508 1512 1514 1515 1518 1518 1519 1518 1517 1517 1517 1519 1517 1516 1516 1514 1512 1510 1509 1507 1504 1500 1498 1495 1491 1489 1486 1483 1483 1479 1476 1474
1510 1512 1514 1516 1517 1521 1521 1518 1517 1517 1515 1518 1517 1516 1514 1513 1510 1508 1507 1505 1502 1498 1496 1493 1490 1487 1484 1482 1480 1478 1475 1471
1509 1511 1515 1518 1518 1520 1520 1518 1517 1517 1516 1516 1516 1514 1512 1511 1509 1507 1506 1503 1500 1497 1495 1492 1489 1486 1483 1480 1478 1477 1473 1470
1507 1507 1511 1513 1516 1518 1518 1517 1517 1516 1515 1515 1514 1513 1510 1509 1508 1507 1504 1502 1500 1496 1494 1491 1488 1485 1482 1480 1478 1475 1472 1469
1502 1506 1511 1509 1515 1515 1515 1514 1516 1515 1514 1513 1512 1511 1510 1508 1507 1506 1503 1501 1498 1496 1493 1490 1487 1485 1482 1479 1477 1474 1471 1466
1499 1503 1507 1509 1509 1514 1513 1513 1513 1513 1513 1512 1511 1510 1509 1507 1506 1505 1502 1501 1499 1496 1493 1490 1488 1485 1482 1479 1477 1473 1469 1464
1496 1501 1505 1506 1509 1511 1511 1512 1512 1511 1511 1510 1509 1509 1508 1507 1506 1504 1502 1501 1499 1497 1494 1491 1490 1486 1482 1479 1476 1473 1469 1463
1496 1501 1503 1504 1507 1509 1510 1510 1510 1509 1508 1508 1508 1507 1507 1507 1506 1505 1504 1502 1501 1498 1496 1493 1490 1487 1484 1481 1478 1474 1469 1463
1493 1497 1500 1503 1505 1506 1507 1508 1508 1508 1508 1508 1508 1508 1508 1507 1506 1507 1505 1504 1502 1500 1498 1495 1491 1488 1485 1482 1479 1474 1469 1464
1490 1495 1498 1500 1501 1503 1506 1506 1507 1508 1508 1508 1508 1509 1508 1508 1508 1508 1507 1505 1503 1501 1499 1497 1493 1489 1485 1482 1479 1475 1470 1466
1488 1492 1496 1497 1499 1501 1503 1504 1506 1507 1508 1509 1509 1509 1510 1510 1510 1509 1508 1507 1505 1503 1500 1497 1494 1490 1487 1483 1480 1476 1472 1467
1483 1488 1492 1494 1497 1499 1502 1504 1505 1507 1508 1508 1509 1510 1510 1511 1511 1511 1510 1509 1507 1504 1501 1498 1495 1492 1489 1485 1482 1478 1473 1469
1481 1485 1489 1492 1495 1499 1502 1503 1504 1506 1507 1508 1509 1510 1511 1512 1511 1511 1511 1510 1508 1505 1502 1499 1497 1493 1491 1487 1484 1479 1475 1470
Wind_Speed
14 14 9 7 4 2 4 2 0 1 2 3 2 1 5 9 13 14 14 15 15 16 16 18 19 20 20 22 25 26 28 30
22 16 11 8 4 3 4 5 2 2 3 3 3 4 4 7 11 13 14 15 15 15 16 18 19 22 23 24 25 28 29 33
19 11 8 5 3 2 3 7 6 4 2 3 3 6 1 6 10 10 12 15 16 19 20 20 19 20 22 24 26 28 29 30
19 14 8 5 3 2 1 5 7 4 4 3 1 3 5 7 7 8 11 12 16 19 19 19 19 20 21 23 24 25 27 26
20 14 10 8 3 4 3 5 6 7 5 4 4 4 5 6 9 9 9 10 14 17 19 18 17 18 19 20 20 21 21 24
23 18 16 9 5 4 1 5 5 6 6 5 6 6 7 6 8 8 8 10 13 17 19 18 18 19 19 20 19 18 19 19
25 20 13 8 5 5 1 4 5 4 6 7 7 6 7 8 9 9 10 12 14 18 18 19 18 19 20 19 17 17 16 17
23 14 9 5 4 0 3 2 5 2 4 4 6 5 6 9 11 11 12 14 15 19 21 20 20 20 19 19 17 15 17 16
15 12 8 6 5 7 7 6 7 0 3 1 5 5 6 8 11 12 13 14 15 17 19 19 20 21 19 18 16 17 17 16
18 16 14 11 9 10 8 10 7 2 5 2 3 3 5 7 11 13 13 14 16 17 18 19 19 20 19 17 16 19 17 17
22 18 15 14 12 11 10 10 6 4 6 5 1 3 4 7 11 13 12 13 15 16 17 19 19 20 18 16 16 18 18 18
21 18 18 15 15 13 9 8 5 4 5 5 3 3 3 6 11 14 11 14 15 16 19 21 19 19 17 17 17 18 18 19
22 19 17 13 13 11 9 7 4 2 2 1 1 5 5 6 10 15 14 16 18 17 19 21 19 18 19 19 21 21 22 23
20 17 16 13 11 10 8 4 2 2 4 4 8 10 8 8 11 16 17 16 17 16 18 22 20 17 17 19 21 22 23 25
22 18 16 12 10 9 6 6 5 7 7 8 9 11 12 12 13 15 16 17 17 15 16 21 21 16 16 18 19 21 23 26
23 20 16 13 12 10 7 7 6 6 9 10 9 10 13 14 13 13 14 15 16 17 17 21 23 21 20 18 19 21 23 25
25 21 17 13 12 12 10 8 8 7 9 6 9 8 10 9 8 8 8 11 14 16 16 19 21 23 21 19 19 20 22 24
24 22 18 13 13 13 11 9 11 8 7 6 8 8 8 6 6 5 7 8 9 13 15 16 19 21 21 19 19 20 22 24
22 20 18 15 14 14 13 11 12 11 8 9 8 9 8 6 7 6 6 6 9 11 13 15 17 19 19 19 19 19 20 23
Wind_Direction
188 180 181 238 263 259 294 315 8 274 306 307 318 66 16 331 327 332 338 340 341 341 350 351 353 356 357 356 353 353 351 343
183 192 209 231 274 314 346 319 329 318 296 318 359 39 24 316 321 329 335 338 338 342 351 352 353 357 359 358 355 353 353 349
172 185 192 219 269 88 334 319 329 8 286 10 70 88 276 297 313 335 337 345 343 343 351 350 353 354 355 357 357 355 356 359
161 171 183 209 224 165 324 317 320 354 333 6 169 206 252 285 335 342 356 345 338 341 349 350 353 352 353 355 356 356 353 357
161 160 156 163 230 221 235 288 317 345 6 1 11 359 1 347 352 341 351 342 336 337 343 347 353 353 351 352 354 356 356 354
155 158 156 164 198 247 226 298 330 358 8 10 16 12 17 344 346 351 349 347 345 339 347 356 360 357 354 352 353 360 1 355
144 147 153 167 230 268 200 283 317 18 49 8 8 9 5 343 354 357 354 348 350 342 350 354 354 352 353 355 359 1 0 344
136 138 155 184 239 328 76 243 291 21 88 1 351 359 353 350 350 350 346 347 350 340 345 351 352 352 354 357 3 7 348 359
127 146 167 201 212 204 200 228 259 183 136 357 325 343 1 352 341 343 343 344 344 339 344 350 352 353 358 4 9 3 359 3
161 179 189 198 213 226 221 235 258 214 174 179 313 329 348 338 329 335 345 343 344 349 353 354 356 359 2 10 16 5 12 5
173 182 199 201 211 229 220 237 251 216 192 208 292 315 336 321 326 345 353 351 357 357 0 1 2 6 9 14 18 7 11 10
189 202 211 206 209 225 236 244 242 208 200 218 275 334 346 327 346 360 3 8 10 9 16 13 12 12 16 21 22 8 10 9
199 207 211 208 217 224 232 225 217 207 173 194 9 26 10 4 10 21 22 32 25 25 22 18 19 23 25 24 25 20 21 17
194 208 207 203 206 208 216 189 179 102 67 71 60 36 38 41 37 32 32 34 26 27 23 20 20 27 34 34 36 33 31 29
199 201 196 191 191 194 180 158 97 85 81 73 64 47 55 55 48 34 33 32 25 30 30 27 25 32 39 40 37 35 34 34
199 201 203 198 195 181 164 150 114 95 81 69 68 58 56 57 51 34 29 26 26 32 40 36 32 34 33 36 35 33 33 34
209 202 199 203 191 176 150 146 123 98 103 86 87 78 75 66 67 39 30 28 25 29 38 40 37 38 33 29 32 33 32 32
196 198 202 190 180 162 163 148 137 135 124 125 108 103 99 87 96 76 49 36 26 36 34 38 36 38 34 30 29 27 29 28
198 199 183 182 170 171 166 159 154 149 149 129 121 121 113 110 98 83 59 38 28 23 29 29 30 31 29 28 26 26 23 25